Regional Weather Roundup
Issued by NWS Northern Indiana

Home | Current Version | Previous Version | Graphics & Text | Print | Product List | Glossary On
Versions: 1 2 3 4 5 6 7 8 9 10 11 12 13 14 15 16 17 18 19 20 21 22 23 24 25 26 27 28 29 30 31 32 33 34 35 36 37 38 39 40 41 42 43 44 45 46 47 48 49 50
788
ASUS43 KIWX 241100
RWRIWX

KIWX WEATHER ROUNDUP
NATIONAL WEATHER SERVICE NORTHERN INDIANA
700 AM EDT WED MAY 24 2017

NOTE: "FAIR" INDICATES FEW OR NO CLOUDS BELOW 12,000 FEET WITH NO
SIGNIFICANT WEATHER AND/OR OBSTRUCTIONS TO VISIBILITY.

* THESE STATIONS ARE NOT UNDER NWS QUALITY CONTROL. THEY ALSO MAY NOT
  REPORT WEATHER SUCH AS PRECIPITATION OR FOG.

INZ001>027-241200-
NORTHERN INDIANA

CITY           SKY/WX    TMP DP  RH WIND       PRES   REMARKS
GARY*          LGT RAIN  54  52  94 N6        29.59F
MICHIGAN CITY* CLOUDY    52  52 100 N6        29.58S
SOUTH BEND     MOCLDY    55  53  93 NE5       29.56F
GOSHEN         CLOUDY    57  51  80 NE6       29.56R
MONTICELLO*    CLOUDY    56  55  95 N8        29.53F FOG
ANGOLA*        CLOUDY    57  52  82 E7        29.57S
FORT WAYNE     CLOUDY    58  51  78 E9        29.55F

$$
INZ028>050-241200-
CENTRAL INDIANA

CITY           SKY/WX    TMP DP  RH WIND       PRES   REMARKS
LAFAYETTE      CLOUDY    57  55  93 NE3       29.53F FOG
KOKOMO*        CLOUDY    56  53  90 CALM      29.53F
MUNCIE*        CLOUDY    61  53  75 NE3       29.53F
INDIANAPOLIS   CLOUDY    58  56  93 N5        29.53S FOG

$$
MIZ043>046-050>051-056>058-064>065-071>073-077>080-241200-
SOUTHWEST LOWER MICHIGAN

CITY           SKY/WX    TMP DP  RH WIND       PRES   REMARKS
BATTLE CREEK   CLOUDY    55  53  93 NE7       29.59F
BENTON HARBOR  CLOUDY    57  52  83 E9        29.56F
COLDWATER*     CLOUDY    55  53  92 E6        29.57F
HILLSDALE*     CLOUDY    54  50  87 E3        29.59S
HOLLAND        CLOUDY    57  53  86 NE6       29.61S
GRAND RAPIDS   CLOUDY    57  54  89 E13       29.61S
KALAMAZOO      CLOUDY    56  51  84 NE3       29.59S
STURGIS*       CLOUDY    55  53  94 E7        29.56F
THREE RIVERS*  CLOUDY    55  52  91 CALM      29.58F

$$
OHZ001>008-015>018-024>025-241200-
NORTHWEST OHIO

CITY           SKY/WX    TMP DP  RH WIND       PRES   REMARKS
DEFIANCE       CLOUDY    55  49  80 E5        29.58R
FINDLAY        CLOUDY    60  55  83 SE6       29.57R
TOLEDO EXPRESS CLOUDY    57  53  86 NE3       29.58S
TOLEDO METCALF CLOUDY    59  56  89 E5        29.60R
LIMA           CLOUDY    60  58  92 SE7       29.57S

$$
AND FOR LAKE MICHIGAN COASTAL AND OPEN LAKE BUOY OBSERVATIONS

STATION/POSITION TEMP    WIND        PRES    VSBY  WAVE
                 AIR SEA DIR/SP/G                  HT/PER
                 (F)     (DEG/KT/KT) (MB)    (MI)  (FT/S)
CALUMET HARBOR    53     330/ 10/ 16 1001.6F
MICHIGAN CITY     51     340/ 18/ 19   N/A
BURNS HARBOR      51      20/ 13/ 16 1002.4S
SOUTH LAKE BUOY   47 45  360/ 14/ 16 1003.1          1
4 MI NW BRIDGMAN  56 58   10/ 10/ 12 1001.8R         1/ 3
MICHIGAN CITY     51 53   10/ 14/ 17   N/A           2/ 2

$$
&&




USA.gov is the U.S. government's official web portal to all federal, state and local government web resources and services.